| time (UTC) | temp F | wind direction | speed MPH | gust MPH | rain 1hr in | rain 24hr in | rain mn in | humidity % | barometer mb |
| 20260507064228 | 72 | 44 | 0.0 | 1.0 | 0.00 | 0.00 | 0.00 | 46 | 1014.8 |
| 20260507063957 | 73 | 44 | 0.0 | 1.0 | 0.00 | 0.00 | 0.00 | 46 | 1014.9 |
| 20260507063230 | 73 | 41 | 0.0 | 0.0 | 0.00 | 0.00 | 0.00 | 44 | 1014.8 |
| 20260507062730 | 73 | 122 | 0.0 | 0.0 | 0.00 | 0.00 | 0.00 | 42 | 1014.9 |
| 20260507062229 | 73 | 122 | 0.0 | 1.0 | 0.00 | 0.00 | 0.00 | 42 | 1014.8 |
| 20260507061728 | 73 | 14 | 0.0 | 1.0 | 0.00 | 0.00 | 0.00 | 42 | 1014.8 |
| 20260507060722 | 73 | 8 | 0.0 | 0.0 | 0.00 | 0.00 | 0.00 | 41 | 1014.7 |
| 20260507060225 | 73 | 8 | 0.0 | 0.0 | 0.00 | 0.00 | 0.00 | 41 | 1014.7 |
| 20260507055721 | 74 | 8 | 0.0 | 0.0 | 0.00 | 0.00 | 0.00 | 40 | 1014.7 |
| 20260507055219 | 74 | 8 | 0.0 | 0.0 | 0.00 | 0.00 | 0.00 | 40 | 1014.7 |
| 20260507054717 | 74 | 8 | 0.0 | 0.0 | 0.00 | 0.00 | 0.00 | 39 | 1014.7 |
| 20260507054215 | 74 | 8 | 0.0 | 0.0 | 0.00 | 0.00 | 0.00 | 38 | 1014.7 |
| 20260507053715 | 74 | 8 | 0.0 | 0.0 | 0.00 | 0.00 | 0.00 | 39 | 1014.7 |
| 20260507053216 | 74 | 8 | 0.0 | 0.0 | 0.00 | 0.00 | 0.00 | 39 | 1014.6 |
| 20260507052714 | 74 | 8 | 0.0 | 0.0 | 0.00 | 0.00 | 0.00 | 38 | 1014.7 |
| 20260507052212 | 74 | 8 | 0.0 | 0.0 | 0.00 | 0.00 | 0.00 | 39 | 1014.7 |
| 20260507051719 | 74 | 8 | 0.0 | 0.0 | 0.00 | 0.00 | 0.00 | 39 | 1014.7 |
| 20260507050710 | 75 | 8 | 0.0 | 0.0 | 0.00 | 0.00 | 0.00 | 38 | 1014.8 |
| 20260507050207 | 76 | 8 | 0.0 | 0.0 | 0.00 | 0.00 | 0.00 | 37 | 1014.6 |
| 20260507045706 | 76 | 8 | 0.0 | 1.0 | 0.00 | 0.00 | 0.00 | 37 | 1014.7 |
| 20260507044702 | 76 | 352 | 0.0 | 1.0 | 0.00 | 0.00 | 0.00 | 37 | 1014.6 |
| 20260507044430 | 76 | 352 | 0.0 | 1.0 | 0.00 | 0.00 | 0.00 | 36 | 1014.6 |
| 20260507043702 | 76 | 352 | 0.0 | 0.0 | 0.00 | 0.00 | 0.00 | 37 | 1014.6 |
| 20260507043431 | 76 | 351 | 0.0 | 0.0 | 0.00 | 0.00 | 0.00 | 36 | 1014.5 |
| 20260507042701 | 77 | 352 | 0.0 | 1.0 | 0.00 | 0.00 | 0.00 | 36 | 1014.6 |
| 20260507042204 | 77 | 352 | 0.0 | 1.0 | 0.00 | 0.00 | 0.00 | 36 | 1014.6 |
| 20260507041702 | 77 | 349 | 0.0 | 1.0 | 0.00 | 0.00 | 0.00 | 35 | 1014.6 |
| 20260507041202 | 77 | 353 | 0.0 | 1.0 | 0.00 | 0.00 | 0.00 | 35 | 1014.5 |
| 20260507040703 | 77 | 297 | 0.0 | 1.0 | 0.00 | 0.00 | 0.00 | 35 | 1014.5 |
| 20260507040200 | 77 | 338 | 0.0 | 0.0 | 0.00 | 0.00 | 0.00 | 35 | 1014.4 |
| 20260507035701 | 78 | 338 | 0.0 | 0.0 | 0.00 | 0.00 | 0.00 | 35 | 1014.2 |
| 20260507034702 | 78 | 338 | 0.0 | 0.0 | 0.00 | 0.00 | 0.00 | 34 | 1014.1 |
| 20260507034435 | 78 | 338 | 0.0 | 0.0 | 0.00 | 0.00 | 0.00 | 34 | 1014.0 |
| 20260507033701 | 79 | 338 | 0.0 | 1.0 | 0.00 | 0.00 | 0.00 | 33 | 1013.9 |
| 20260507032702 | 79 | 335 | 0.0 | 1.0 | 0.00 | 0.00 | 0.00 | 32 | 1013.8 |
| 20260507032201 | 79 | 337 | 0.0 | 0.0 | 0.00 | 0.00 | 0.00 | 32 | 1013.6 |
| 20260507031704 | 80 | 337 | 0.0 | 0.0 | 0.00 | 0.00 | 0.00 | 31 | 1013.6 |
| 20260507031202 | 80 | 337 | 0.0 | 0.0 | 0.00 | 0.00 | 0.00 | 31 | 1013.4 |
| 20260507030701 | 80 | 337 | 0.0 | 1.0 | 0.00 | 0.00 | 0.00 | 31 | 1013.4 |
| 20260507030431 | 81 | 337 | 0.0 | 1.0 | 0.00 | 0.00 | 0.00 | 30 | 1013.3 |
| 20260507025657 | 81 | 65 | 0.0 | 1.0 | 0.00 | 0.00 | 0.00 | 30 | 1013.3 |
| 20260507025151 | 82 | 65 | 0.0 | 1.0 | 0.00 | 0.00 | 0.00 | 30 | 1013.1 |
| 20260507024644 | 82 | 65 | 0.0 | 1.0 | 0.00 | 0.00 | 0.00 | 30 | 1013.0 |
| 20260507024139 | 82 | 66 | 0.0 | 1.0 | 0.00 | 0.00 | 0.00 | 29 | 1012.9 |
| 20260507023635 | 83 | 66 | 0.0 | 2.0 | 0.00 | 0.00 | 0.00 | 29 | 1012.9 |
| 20260507023133 | 83 | 70 | 0.0 | 3.0 | 0.00 | 0.00 | 0.00 | 28 | 1012.9 |
| 20260507022632 | 83 | 71 | 0.0 | 3.0 | 0.00 | 0.00 | 0.00 | 28 | 1012.7 |
| 20260507022132 | 84 | 78 | 1.0 | 5.0 | 0.00 | 0.00 | 0.00 | 28 | 1012.7 |
| 20260507021632 | 84 | 95 | 1.0 | 5.0 | 0.00 | 0.00 | 0.00 | 27 | 1012.6 |
| 20260507021131 | 85 | 87 | 1.0 | 4.0 | 0.00 | 0.00 | 0.00 | 27 | 1012.7 |
| 20260507020631 | 85 | 80 | 1.0 | 3.0 | 0.00 | 0.00 | 0.00 | 27 | 1012.6 |
| 20260507020133 | 86 | 76 | 1.0 | 5.0 | 0.00 | 0.00 | 0.00 | 27 | 1012.5 |
| 20260507015632 | 86 | 91 | 2.0 | 5.0 | 0.00 | 0.00 | 0.00 | 27 | 1012.4 |
| 20260507015356 | 87 | 73 | 1.0 | 4.0 | 0.00 | 0.00 | 0.00 | 27 | 1012.5 |
| 20260507014631 | 87 | 102 | 1.0 | 4.0 | 0.00 | 0.00 | 0.00 | 26 | 1012.5 |
| 20260507014132 | 87 | 57 | 1.0 | 4.0 | 0.00 | 0.00 | 0.00 | 26 | 1012.5 |
| 20260507013633 | 87 | 86 | 1.0 | 4.0 | 0.00 | 0.00 | 0.00 | 26 | 1012.5 |
| 20260507013131 | 87 | 65 | 2.0 | 5.0 | 0.00 | 0.00 | 0.00 | 26 | 1012.4 |
| 20260507012856 | 87 | 105 | 2.0 | 5.0 | 0.00 | 0.00 | 0.00 | 26 | 1012.4 |
| 20260507012132 | 87 | 120 | 2.0 | 7.0 | 0.00 | 0.00 | 0.00 | 27 | 1012.3 |
| 20260507011631 | 87 | 110 | 3.0 | 7.0 | 0.00 | 0.00 | 0.00 | 26 | 1012.3 |
| 20260507011130 | 87 | 79 | 2.0 | 7.0 | 0.00 | 0.00 | 0.00 | 26 | 1012.4 |
| 20260507010630 | 88 | 72 | 2.0 | 8.0 | 0.00 | 0.00 | 0.00 | 26 | 1012.4 |
| 20260507010129 | 88 | 51 | 2.0 | 8.0 | 0.00 | 0.00 | 0.00 | 26 | 1012.3 |
| 20260507005859 | 88 | 104 | 2.0 | 8.0 | 0.00 | 0.00 | 0.00 | 26 | 1012.2 |
| 20260507005358 | 88 | 68 | 3.0 | 8.0 | 0.00 | 0.00 | 0.00 | 26 | 1012.3 |
| 20260507004629 | 88 | 87 | 4.0 | 10.0 | 0.00 | 0.00 | 0.00 | 26 | 1012.3 |
| 20260507004129 | 88 | 82 | 4.0 | 10.0 | 0.00 | 0.00 | 0.00 | 24 | 1012.3 |
| 20260507003630 | 89 | 76 | 3.0 | 9.0 | 0.00 | 0.00 | 0.00 | 26 | 1012.3 |
| 20260507003129 | 88 | 76 | 3.0 | 9.0 | 0.00 | 0.00 | 0.00 | 24 | 1012.3 |
| 20260507002629 | 89 | 124 | 3.0 | 7.0 | 0.00 | 0.00 | 0.00 | 24 | 1012.2 |
| 20260507002129 | 89 | 71 | 3.0 | 9.0 | 0.00 | 0.00 | 0.00 | 24 | 1012.2 |
| 20260507001629 | 89 | 98 | 4.0 | 9.0 | 0.00 | 0.00 | 0.00 | 24 | 1012.1 |
| 20260507001130 | 89 | 113 | 4.0 | 9.0 | 0.00 | 0.00 | 0.00 | 24 | 1012.2 |
| 20260507000630 | 89 | 105 | 3.0 | 9.0 | 0.00 | 0.00 | 0.00 | 24 | 1012.1 |
| 20260507000130 | 89 | 59 | 3.0 | 8.0 | 0.00 | 0.00 | 0.00 | 24 | 1012.0 |
| 20260506235629 | 89 | 120 | 3.0 | 10.0 | 0.00 | 0.00 | 0.00 | 24 | 1012.0 |
| 20260506235129 | 90 | 108 | 3.0 | 10.0 | 0.00 | 0.00 | 0.00 | 23 | 1012.1 |
| 20260506234630 | 90 | 80 | 3.0 | 6.0 | 0.00 | 0.00 | 0.00 | 24 | 1012.0 |
| 20260506234128 | 89 | 76 | 3.0 | 8.0 | 0.00 | 0.00 | 0.00 | 23 | 1011.9 |
| 20260506233622 | 89 | 106 | 3.0 | 8.0 | 0.00 | 0.00 | 0.00 | 23 | 1012.0 |
| 20260506233117 | 89 | 96 | 2.0 | 6.0 | 0.00 | 0.00 | 0.00 | 23 | 1012.1 |
| 20260506232609 | 90 | 108 | 2.0 | 6.0 | 0.00 | 0.00 | 0.00 | 23 | 1012.2 |
| 20260506232333 | 89 | 85 | 3.0 | 7.0 | 0.00 | 0.00 | 0.00 | 23 | 1012.2 |
| 20260506231110 | 89 | 87 | 2.0 | 9.0 | 0.00 | 0.00 | 0.00 | 23 | 1012.4 |
| 20260506230608 | 89 | 54 | 2.0 | 9.0 | 0.00 | 0.00 | 0.00 | 23 | 1012.4 |
| 20260506230332 | 89 | 113 | 2.0 | 6.0 | 0.00 | 0.00 | 0.00 | 23 | 1012.4 |
| 20260506225608 | 89 | 23 | 2.0 | 6.0 | 0.00 | 0.00 | 0.00 | 24 | 1012.5 |
| 20260506224608 | 89 | 115 | 1.0 | 5.0 | 0.00 | 0.00 | 0.00 | 24 | 1012.6 |
| 20260506224118 | 89 | 103 | 2.0 | 6.0 | 0.00 | 0.00 | 0.00 | 24 | 1012.7 |
| 20260506223606 | 89 | 47 | 3.0 | 8.0 | 0.00 | 0.00 | 0.00 | 23 | 1012.9 |
| 20260506222330 | 88 | 89 | 1.0 | 4.0 | 0.00 | 0.00 | 0.00 | 26 | 1013.1 |
| 20260506221605 | 89 | 27 | 2.0 | 6.0 | 0.00 | 0.00 | 0.00 | 24 | 1013.2 |
| 20260506221109 | 88 | 18 | 2.0 | 8.0 | 0.00 | 0.00 | 0.00 | 26 | 1013.2 |
| 20260506220604 | 88 | 356 | 3.0 | 8.0 | 0.00 | 0.00 | 0.00 | 26 | 1013.4 |
| 20260506215603 | 88 | 160 | 1.0 | 6.0 | 0.00 | 0.00 | 0.00 | 26 | 1013.5 |
| 20260506215102 | 88 | 172 | 2.0 | 5.0 | 0.00 | 0.00 | 0.00 | 26 | 1013.6 |
| 20260506214600 | 87 | 63 | 2.0 | 8.0 | 0.00 | 0.00 | 0.00 | 28 | 1013.7 |
| 20260506214327 | 87 | 66 | 2.0 | 8.0 | 0.00 | 0.00 | 0.00 | 27 | 1013.8 |
| 20260506213830 | 88 | 57 | 1.0 | 7.0 | 0.00 | 0.00 | 0.00 | 27 | 1013.9 |
| 20260506213101 | 87 | 134 | 1.0 | 8.0 | 0.00 | 0.00 | 0.00 | 27 | 1013.9 |
| 20260506212602 | 87 | 71 | 2.0 | 8.0 | 0.00 | 0.00 | 0.00 | 28 | 1013.9 |
| 20260506212101 | 87 | 78 | 3.0 | 6.0 | 0.00 | 0.00 | 0.00 | 27 | 1013.9 |
| 20260506211836 | 87 | 28 | 2.0 | 6.0 | 0.00 | 0.00 | 0.00 | 28 | 1014.1 |
| 20260506211103 | 87 | 61 | 2.0 | 5.0 | 0.00 | 0.00 | 0.00 | 28 | 1014.2 |
| 20260506210601 | 86 | 34 | 2.0 | 7.0 | 0.00 | 0.00 | 0.00 | 28 | 1014.2 |
| 20260506205600 | 86 | 68 | 1.0 | 6.0 | 0.00 | 0.00 | 0.00 | 29 | 1014.5 |
| 20260506205101 | 86 | 41 | 1.0 | 6.0 | 0.00 | 0.00 | 0.00 | 28 | 1014.5 |
| 20260506204601 | 86 | 111 | 1.0 | 6.0 | 0.00 | 0.00 | 0.00 | 26 | 1014.5 |
| 20260506204102 | 86 | 94 | 1.0 | 6.0 | 0.00 | 0.00 | 0.00 | 27 | 1014.6 |
| 20260506203603 | 86 | 18 | 2.0 | 6.0 | 0.00 | 0.00 | 0.00 | 27 | 1014.7 |
| 20260506203057 | 86 | 17 | 2.0 | 7.0 | 0.00 | 0.00 | 0.00 | 28 | 1014.9 |
| 20260506202551 | 86 | 117 | 2.0 | 7.0 | 0.00 | 0.00 | 0.00 | 27 | 1014.8 |
| 20260506202046 | 85 | 333 | 1.0 | 5.0 | 0.00 | 0.00 | 0.00 | 27 | 1014.9 |
| 20260506201539 | 85 | 107 | 1.0 | 4.0 | 0.00 | 0.00 | 0.00 | 27 | 1015.0 |
| 20260506201033 | 85 | 106 | 1.0 | 6.0 | 0.00 | 0.00 | 0.00 | 27 | 1015.0 |
| 20260506200533 | 84 | 5 | 2.0 | 6.0 | 0.00 | 0.00 | 0.00 | 28 | 1015.1 |
| 20260506200030 | 84 | 56 | 1.0 | 5.0 | 0.00 | 0.00 | 0.00 | 28 | 1015.1 |
| 20260506195800 | 84 | 330 | 1.0 | 4.0 | 0.00 | 0.00 | 0.00 | 28 | 1015.2 |
| 20260506195028 | 84 | 23 | 1.0 | 7.0 | 0.00 | 0.00 | 0.00 | 29 | 1015.3 |
| 20260506194528 | 84 | 56 | 2.0 | 7.0 | 0.00 | 0.00 | 0.00 | 29 | 1015.3 |
| 20260506194030 | 83 | 105 | 1.0 | 4.0 | 0.00 | 0.00 | 0.00 | 29 | 1015.4 |
| 20260506193531 | 83 | 293 | 1.0 | 5.0 | 0.00 | 0.00 | 0.00 | 30 | 1015.5 |
| 20260506193029 | 83 | 38 | 1.0 | 5.0 | 0.00 | 0.00 | 0.00 | 29 | 1015.6 |
| 20260506192529 | 83 | 81 | 1.0 | 4.0 | 0.00 | 0.00 | 0.00 | 31 | 1015.6 |
| 20260506192028 | 82 | 166 | 1.0 | 4.0 | 0.00 | 0.00 | 0.00 | 30 | 1015.7 |
| 20260506191532 | 82 | 56 | 1.0 | 5.0 | 0.00 | 0.00 | 0.00 | 31 | 1015.9 |
| 20260506191030 | 82 | 218 | 1.0 | 5.0 | 0.00 | 0.00 | 0.00 | 30 | 1015.9 |
| 20260506190529 | 82 | 65 | 1.0 | 5.0 | 0.00 | 0.00 | 0.00 | 31 | 1016.1 |
| 20260506190259 | 81 | 22 | 1.0 | 5.0 | 0.00 | 0.00 | 0.00 | 32 | 1016.0 |
| 20260506185530 | 82 | 72 | 1.0 | 5.0 | 0.00 | 0.00 | 0.00 | 31 | 1016.1 |
| 20260506185029 | 81 | 91 | 2.0 | 5.0 | 0.00 | 0.00 | 0.00 | 32 | 1016.2 |
| 20260506184530 | 80 | 137 | 2.0 | 5.0 | 0.00 | 0.00 | 0.00 | 33 | 1016.2 |
| 20260506184029 | 81 | 75 | 1.0 | 4.0 | 0.00 | 0.00 | 0.00 | 33 | 1016.2 |
| 20260506183753 | 81 | 117 | 1.0 | 5.0 | 0.00 | 0.00 | 0.00 | 32 | 1016.3 |
| 20260506183301 | 81 | 60 | 1.0 | 5.0 | 0.00 | 0.00 | 0.00 | 32 | 1016.4 |
| 20260506182529 | 80 | 148 | 1.0 | 6.0 | 0.00 | 0.00 | 0.00 | 34 | 1016.4 |
| 20260506182030 | 79 | 40 | 1.0 | 6.0 | 0.00 | 0.00 | 0.00 | 35 | 1016.5 |
| 20260506181529 | 79 | 52 | 1.0 | 5.0 | 0.00 | 0.00 | 0.00 | 36 | 1016.5 |
| 20260506181030 | 78 | 43 | 2.0 | 5.0 | 0.00 | 0.00 | 0.00 | 35 | 1016.5 |
| 20260506180757 | 78 | 86 | 1.0 | 4.0 | 0.00 | 0.00 | 0.00 | 35 | 1016.5 |
| 20260506180029 | 79 | 55 | 1.0 | 4.0 | 0.00 | 0.00 | 0.00 | 35 | 1016.5 |
| 20260506175529 | 78 | 157 | 1.0 | 6.0 | 0.00 | 0.00 | 0.00 | 36 | 1016.6 |
| 20260506175029 | 77 | 82 | 2.0 | 6.0 | 0.00 | 0.00 | 0.00 | 37 | 1016.5 |
| 20260506174756 | 77 | 105 | 2.0 | 6.0 | 0.00 | 0.00 | 0.00 | 38 | 1016.5 |
| 20260506174032 | 77 | 64 | 1.0 | 5.0 | 0.00 | 0.00 | 0.00 | 37 | 1016.5 |
| 20260506173530 | 76 | 330 | 1.0 | 7.0 | 0.00 | 0.00 | 0.00 | 37 | 1016.5 |
| 20260506173029 | 76 | 54 | 1.0 | 7.0 | 0.00 | 0.00 | 0.00 | 37 | 1016.5 |
| 20260506172528 | 76 | 98 | 1.0 | 5.0 | 0.00 | 0.00 | 0.00 | 37 | 1016.6 |
| 20260506172031 | 75 | 239 | 2.0 | 5.0 | 0.00 | 0.00 | 0.00 | 38 | 1016.5 |
| 20260506171529 | 75 | 32 | 2.0 | 5.0 | 0.00 | 0.00 | 0.00 | 38 | 1016.6 |
| 20260506171029 | 74 | 40 | 2.0 | 5.0 | 0.00 | 0.00 | 0.00 | 39 | 1016.5 |
| 20260506170530 | 74 | 30 | 2.0 | 5.0 | 0.00 | 0.00 | 0.00 | 39 | 1016.5 |
| 20260506170258 | 74 | 90 | 1.0 | 5.0 | 0.00 | 0.00 | 0.00 | 42 | 1016.5 |
| 20260506165528 | 74 | 36 | 1.0 | 5.0 | 0.00 | 0.00 | 0.00 | 42 | 1016.5 |
| 20260506165029 | 74 | 201 | 1.0 | 4.0 | 0.00 | 0.00 | 0.00 | 42 | 1016.5 |
| 20260506164802 | 74 | 149 | 1.0 | 5.0 | 0.00 | 0.00 | 0.00 | 43 | 1016.5 |
| 20260506164259 | 73 | 89 | 1.0 | 5.0 | 0.00 | 0.00 | 0.00 | 42 | 1016.5 |
| 20260506163812 | 73 | 52 | 1.0 | 4.0 | 0.00 | 0.00 | 0.00 | 42 | 1016.5 |
| 20260506163022 | 73 | 148 | 1.0 | 4.0 | 0.00 | 0.00 | 0.00 | 42 | 1016.6 |
| 20260506162524 | 73 | 153 | 1.0 | 4.0 | 0.00 | 0.00 | 0.00 | 41 | 1016.6 |
| 20260506162250 | 73 | 43 | 0.0 | 4.0 | 0.00 | 0.00 | 0.00 | 41 | 1016.6 |
| 20260506160523 | 73 | 98 | 0.0 | 2.0 | 0.00 | 0.00 | 0.00 | 42 | 1016.5 |
| 20260506160020 | 72 | 106 | 0.0 | 2.0 | 0.00 | 0.00 | 0.00 | 43 | 1016.5 |
| 20260506155019 | 71 | 103 | 0.0 | 1.0 | 0.00 | 0.00 | 0.00 | 44 | 1016.5 |
| 20260506154523 | 71 | 209 | 0.0 | 2.0 | 0.00 | 0.00 | 0.00 | 46 | 1016.4 |
| 20260506154252 | 70 | 152 | 0.0 | 2.0 | 0.00 | 0.00 | 0.00 | 47 | 1016.5 |
| 20260506153514 | 69 | 155 | 0.0 | 2.0 | 0.00 | 0.00 | 0.00 | 48 | 1016.5 |
| 20260506153012 | 68 | 110 | 0.0 | 2.0 | 0.00 | 0.00 | 0.00 | 50 | 1016.4 |
| 20260506152515 | 69 | 109 | 0.0 | 2.0 | 0.00 | 0.00 | 0.00 | 51 | 1016.5 |
| 20260506152012 | 69 | 68 | 0.0 | 2.0 | 0.00 | 0.00 | 0.00 | 49 | 1016.5 |
| 20260506151511 | 68 | 115 | 0.0 | 1.0 | 0.00 | 0.00 | 0.00 | 51 | 1016.4 |
| 20260506151008 | 68 | 170 | 0.0 | 1.0 | 0.00 | 0.00 | 0.00 | 52 | 1016.5 |
| 20260506150509 | 68 | 148 | 0.0 | 1.0 | 0.00 | 0.00 | 0.00 | 52 | 1016.4 |
| 20260506150007 | 67 | 150 | 0.0 | 1.0 | 0.00 | 0.00 | 0.00 | 53 | 1016.4 |
| 20260506145508 | 68 | 105 | 0.0 | 2.0 | 0.00 | 0.00 | 0.00 | 52 | 1016.3 |
| 20260506144505 | 67 | 186 | 0.0 | 0.0 | 0.00 | 0.00 | 0.00 | 53 | 1016.4 |
| 20260506144004 | 67 | 127 | 0.0 | 0.0 | 0.00 | 0.00 | 0.00 | 52 | 1016.4 |
| 20260506143505 | 67 | 119 | 0.0 | 0.0 | 0.00 | 0.00 | 0.00 | 51 | 1016.3 |
| 20260506143005 | 67 | 146 | 0.0 | 0.0 | 0.00 | 0.00 | 0.00 | 53 | 1016.2 |
| 20260506142506 | 66 | 240 | 0.0 | 0.0 | 0.00 | 0.00 | 0.00 | 54 | 1016.2 |
| 20260506142003 | 67 | 259 | 0.0 | 0.0 | 0.00 | 0.00 | 0.00 | 54 | 1016.2 |
| 20260506141502 | 66 | 156 | 0.0 | 0.0 | 0.00 | 0.00 | 0.00 | 54 | 1016.2 |
| 20260506141005 | 65 | 141 | 0.0 | 0.0 | 0.00 | 0.00 | 0.00 | 55 | 1016.2 |
| 20260506140503 | 65 | 142 | 0.0 | 0.0 | 0.00 | 0.00 | 0.00 | 56 | 1016.1 |
| 20260506140004 | 64 | 143 | 0.0 | 0.0 | 0.00 | 0.00 | 0.00 | 57 | 1016.0 |
| 20260506135504 | 64 | 163 | 0.0 | 0.0 | 0.00 | 0.00 | 0.00 | 58 | 1016.0 |
| 20260506135001 | 63 | 173 | 0.0 | 0.0 | 0.00 | 0.00 | 0.00 | 58 | 1015.9 |
| 20260506134501 | 63 | 140 | 0.0 | 0.0 | 0.00 | 0.00 | 0.00 | 58 | 1015.8 |
| 20260506134228 | 62 | 142 | 0.0 | 0.0 | 0.00 | 0.00 | 0.00 | 60 | 1015.8 |
| 20260506133501 | 61 | 142 | 0.0 | 0.0 | 0.00 | 0.00 | 0.00 | 61 | 1015.7 |
| 20260506133001 | 61 | 142 | 0.0 | 0.0 | 0.00 | 0.00 | 0.00 | 62 | 1015.7 |
| 20260506132502 | 60 | 176 | 0.0 | 0.0 | 0.00 | 0.00 | 0.00 | 63 | 1015.6 |
| 20260506132001 | 59 | 176 | 0.0 | 0.0 | 0.00 | 0.00 | 0.00 | 65 | 1015.7 |
| 20260506131502 | 58 | 166 | 0.0 | 0.0 | 0.00 | 0.00 | 0.00 | 66 | 1015.5 |
| 20260506131004 | 58 | 155 | 0.0 | 0.0 | 0.00 | 0.00 | 0.00 | 66 | 1015.6 |
| 20260506130505 | 58 | 163 | 0.0 | 0.0 | 0.00 | 0.00 | 0.00 | 66 | 1015.5 |
| 20260506130005 | 58 | 145 | 0.0 | 0.0 | 0.00 | 0.00 | 0.00 | 66 | 1015.5 |
| 20260506125502 | 58 | 143 | 0.0 | 0.0 | 0.00 | 0.00 | 0.00 | 67 | 1015.4 |
| 20260506124501 | 58 | 169 | 0.0 | 0.0 | 0.00 | 0.00 | 0.00 | 67 | 1015.3 |
| 20260506124000 | 58 | 158 | 0.0 | 0.0 | 0.00 | 0.00 | 0.00 | 67 | 1015.3 |
| 20260506123503 | 58 | 203 | 0.0 | 0.0 | 0.00 | 0.00 | 0.00 | 68 | 1015.3 |
| 20260506123004 | 57 | 207 | 0.0 | 0.0 | 0.00 | 0.00 | 0.00 | 69 | 1015.3 |
| 20260506122501 | 57 | 207 | 0.0 | 0.0 | 0.00 | 0.00 | 0.00 | 68 | 1015.2 |
| 20260506122001 | 57 | 207 | 0.0 | 0.0 | 0.00 | 0.00 | 0.00 | 69 | 1015.2 |
| 20260506121501 | 57 | 207 | 0.0 | 0.0 | 0.00 | 0.00 | 0.00 | 69 | 1015.2 |
| 20260506121002 | 57 | 207 | 0.0 | 0.0 | 0.00 | 0.00 | 0.00 | 68 | 1015.0 |
| 20260506120501 | 57 | 207 | 0.0 | 0.0 | 0.00 | 0.00 | 0.00 | 68 | 1015.0 |
| 20260506120004 | 57 | 207 | 0.0 | 0.0 | 0.00 | 0.00 | 0.00 | 67 | 1014.9 |
| 20260506115505 | 57 | 207 | 0.0 | 0.0 | 0.00 | 0.00 | 0.00 | 67 | 1014.9 |
| 20260506115004 | 58 | 207 | 0.0 | 0.0 | 0.00 | 0.00 | 0.00 | 66 | 1014.9 |
| 20260506114504 | 58 | 207 | 0.0 | 0.0 | 0.00 | 0.00 | 0.00 | 65 | 1014.9 |
| 20260506114005 | 59 | 207 | 0.0 | 0.0 | 0.00 | 0.00 | 0.00 | 65 | 1014.9 |
| 20260506113502 | 59 | 207 | 0.0 | 0.0 | 0.00 | 0.00 | 0.00 | 64 | 1014.9 |
| 20260506113001 | 59 | 207 | 0.0 | 0.0 | 0.00 | 0.00 | 0.00 | 64 | 1014.9 |
| 20260506112502 | 59 | 232 | 0.0 | 0.0 | 0.00 | 0.00 | 0.00 | 64 | 1014.9 |
| 20260506112001 | 60 | 143 | 0.0 | 0.0 | 0.00 | 0.00 | 0.00 | 63 | 1014.9 |
| 20260506111500 | 60 | 171 | 0.0 | 0.0 | 0.00 | 0.00 | 0.00 | 63 | 1014.9 |
| 20260506111000 | 60 | 238 | 0.0 | 1.0 | 0.00 | 0.00 | 0.00 | 62 | 1014.9 |
| 20260506110501 | 60 | 227 | 0.0 | 1.0 | 0.00 | 0.00 | 0.00 | 61 | 1014.9 |
| 20260506110005 | 60 | 291 | 0.0 | 1.0 | 0.00 | 0.00 | 0.00 | 61 | 1014.8 |
| 20260506105504 | 60 | 292 | 0.0 | 2.0 | 0.00 | 0.00 | 0.00 | 61 | 1014.8 |
| 20260506105236 | 60 | 293 | 0.0 | 2.0 | 0.00 | 0.00 | 0.00 | 61 | 1014.8 |
| 20260506104503 | 60 | 304 | 0.0 | 2.0 | 0.00 | 0.00 | 0.00 | 61 | 1014.9 |
| 20260506104004 | 60 | 253 | 0.0 | 2.0 | 0.00 | 0.00 | 0.00 | 61 | 1014.9 |
| 20260506103501 | 60 | 1 | 0.0 | 3.0 | 0.00 | 0.00 | 0.00 | 62 | 1014.9 |
| 20260506103002 | 60 | 18 | 0.0 | 3.0 | 0.00 | 0.00 | 0.00 | 62 | 1014.8 |
| 20260506102001 | 60 | 143 | 0.0 | 0.0 | 0.00 | 0.00 | 0.00 | 63 | 1014.6 |
| 20260506101502 | 60 | 162 | 0.0 | 0.0 | 0.00 | 0.00 | 0.00 | 62 | 1014.6 |
| 20260506100501 | 60 | 162 | 0.0 | 0.0 | 0.00 | 0.00 | 0.00 | 61 | 1014.6 |
| 20260506100004 | 61 | 162 | 0.0 | 0.0 | 0.00 | 0.00 | 0.00 | 61 | 1014.7 |
| 20260506095459 | 61 | 162 | 0.0 | 0.0 | 0.00 | 0.00 | 0.00 | 60 | 1014.6 |
| 20260506094954 | 61 | 162 | 0.0 | 0.0 | 0.00 | 0.00 | 0.00 | 60 | 1014.6 |
| 20260506094456 | 61 | 162 | 0.0 | 0.0 | 0.00 | 0.00 | 0.00 | 60 | 1014.6 |
| 20260506093953 | 61 | 136 | 0.0 | 0.0 | 0.00 | 0.00 | 0.00 | 59 | 1014.7 |
| 20260506093453 | 61 | 136 | 0.0 | 0.0 | 0.00 | 0.00 | 0.00 | 59 | 1014.7 |
| 20260506092950 | 62 | 136 | 0.0 | 0.0 | 0.00 | 0.00 | 0.00 | 59 | 1014.7 |
| 20260506092450 | 62 | 135 | 0.0 | 0.0 | 0.00 | 0.00 | 0.00 | 58 | 1014.7 |
| 20260506091950 | 62 | 135 | 0.0 | 0.0 | 0.00 | 0.00 | 0.00 | 58 | 1014.7 |
| 20260506091448 | 62 | 169 | 0.0 | 0.0 | 0.00 | 0.00 | 0.00 | 58 | 1014.8 |
| 20260506090948 | 62 | 169 | 0.0 | 0.0 | 0.00 | 0.00 | 0.00 | 57 | 1014.8 |
| 20260506090447 | 62 | 183 | 0.0 | 0.0 | 0.00 | 0.00 | 0.00 | 57 | 1014.8 |
| 20260506085944 | 62 | 184 | 0.0 | 0.0 | 0.00 | 0.00 | 0.00 | 57 | 1014.9 |
| 20260506085444 | 62 | 157 | 0.0 | 0.0 | 0.00 | 0.00 | 0.00 | 57 | 1014.8 |
| 20260506084943 | 62 | 158 | 0.0 | 0.0 | 0.00 | 0.00 | 0.00 | 57 | 1014.9 |
| 20260506084435 | 62 | 193 | 0.0 | 0.0 | 0.00 | 0.00 | 0.00 | 57 | 1014.9 |
| 20260506083934 | 62 | 159 | 0.0 | 0.0 | 0.00 | 0.00 | 0.00 | 56 | 1014.9 |
| 20260506083448 | 63 | 177 | 0.0 | 1.0 | 0.00 | 0.00 | 0.00 | 56 | 1014.9 |
| 20260506082431 | 63 | 114 | 0.0 | 0.0 | 0.00 | 0.00 | 0.00 | 55 | 1014.9 |
| 20260506081932 | 63 | 114 | 0.0 | 0.0 | 0.00 | 0.00 | 0.00 | 55 | 1014.8 |
| 20260506081431 | 63 | 114 | 0.0 | 0.0 | 0.00 | 0.00 | 0.00 | 55 | 1014.8 |
| 20260506080933 | 63 | 114 | 0.0 | 1.0 | 0.00 | 0.00 | 0.00 | 55 | 1014.8 |
| 20260506080430 | 64 | 113 | 0.0 | 1.0 | 0.00 | 0.00 | 0.00 | 54 | 1014.8 |
| 20260506072930 | 64 | 214 | 0.0 | 1.0 | 0.00 | 0.00 | 0.00 | 54 | 1014.7 |
| 20260506072429 | 64 | 117 | 0.0 | 0.0 | 0.00 | 0.00 | 0.00 | 53 | 1014.6 |
| 20260506072202 | 64 | 117 | 0.0 | 0.0 | 0.00 | 0.00 | 0.00 | 53 | 1014.7 |
| 20260506071703 | 64 | 117 | 0.0 | 0.0 | 0.00 | 0.00 | 0.00 | 53 | 1014.6 |
| 20260506070929 | 64 | 117 | 0.0 | 0.0 | 0.00 | 0.00 | 0.00 | 51 | 1014.5 |
| 20260506070658 | 65 | 117 | 0.0 | 0.0 | 0.00 | 0.00 | 0.00 | 51 | 1014.5 |